[[{"header":{"parameterUnit":"m.s-1","parameterCategory":1,"la1":30.2991,"la2":30.254,"lo1":-89.0895,"lo2":-89.0444,"dy":0.0017,"dx":0.0017,"nx":28,"ny":28,"refTime":"2024-08-10T15:00:00:Z","depth":0,"parameterNumber":2,"parameterNumberName":"U-component_of_WINDS"},"data":[0,0,0,0,0,0,0,0,0,0,0,0,0,0,0,0,0,0,0,0,0,0,0,0,0,0,0,0,0,0,0,0,0,0,0,0,0,0,0,0,0,0,0,0,0,0,0,0,0,0,0,0,0,0,0,0,0,0,1.9569,1.957,0,1.9669,1.967,1.9671,1.9677,1.9676,1.9675,1.9673,1.9776,1.9779,1.9783,0,0,0,0,0,0,0,0,0,0,0,0,0,1.9383,1.9386,1.9569,1.957,1.9572,1.9669,1.967,1.9672,1.9677,1.9676,1.9674,1.9673,1.9775,1.9779,1.9784,0,0,0,0,0,0,0,0,0,0,0,0,0,1.9471,1.9387,1.9569,1.9586,1.9589,1.9669,1.967,1.9672,1.9677,1.9676,1.9674,1.9672,1.9773,1.9779,1.9784,1.9854,0,0,1.9802,1.9804,0,0,0,0,0,0,0,0,1.9466,1.9478,1.9582,1.9585,1.9588,1.9659,1.9642,1.9733,1.9678,1.9644,1.9673,1.9671,1.9738,1.9747,1.9769,1.9858,1.9863,1.9802,1.9806,1.9808,1.981,0,0,0,0,0,0,0,1.946,1.9474,1.9609,1.9584,1.9587,1.9589,1.9599,1.9659,1.9699,1.9647,1.9647,1.9659,1.9739,1.9764,1.9772,1.9864,1.9802,1.9807,1.981,1.9813,2.0014,2.0016,0,0,0,0,0,0,1.9451,1.9468,1.9605,1.9612,1.9522,1.9593,1.9605,1.9638,1.9699,1.9706,1.966,1.9659,1.9755,1.9765,1.9775,1.9859,1.9808,1.9813,1.9817,2.0012,2.0014,2.0016,0,0,0,0,0,0,1.9446,1.9463,1.9601,1.954,1.9558,1.9598,1.9635,1.9641,1.9665,1.9709,1.9716,1.9678,1.9754,1.9767,1.9834,1.9863,1.9816,1.9821,2.001,2.0013,2.0015,2.0028,0,0,0,0,0,0,1.9441,1.9461,1.9488,1.9541,1.9561,1.9658,1.9637,1.9644,1.9675,1.9674,1.9727,1.9735,1.9753,1.9825,1.9839,1.987,1.9825,2.0007,2.0011,2.0014,2.0025,2.0031,2.0036,0,0,0,0,0,1.9434,1.9488,1.949,1.9506,1.9596,1.966,1.9672,1.9692,1.9677,1.9704,1.9732,1.9733,1.9857,1.9832,1.9848,1.988,2.0005,2.001,2.0014,2.0022,2.003,2.0036,0,0,0,0,0,0,1.9438,1.9495,1.9498,1.957,1.961,1.9661,1.9696,1.97,1.9745,1.9742,1.9766,1.9778,1.9843,1.9869,1.9839,1.995,1.993,1.9937,1.9931,1.9938,1.9943,1.9935,1.983,0,0,0,0,0,1.9447,1.9495,1.9542,1.9602,1.9622,1.9655,1.9684,1.9697,1.9739,1.9756,1.9789,1.983,1.9878,1.991,1.9957,2.0029,2.004,2.0059,2.0065,2.0069,2.0075,2.0113,2.0121,2.0031,2.0031,2.003,0,0,1.9467,1.9504,1.9533,1.9603,1.9636,1.9684,1.967,1.9721,1.9757,1.9764,1.9828,1.9854,1.9901,1.997,2.0003,1.9994,2.0102,2.0074,2.0077,2.0081,2.0118,2.0127,2.0134,2.0034,2.0033,2.0033,0,0,1.9526,1.956,1.9612,1.9645,1.9694,1.9716,1.9729,1.9779,1.9796,1.9861,1.9867,1.991,1.9993,2.0026,2.0053,2.0125,2.0126,2.014,2.0167,2.0204,2.0211,2.0217,2.0241,2.0249,2.0146,2.0146,2.0146,0,1.9544,1.9617,1.9638,1.969,1.972,1.9729,1.9781,1.9812,1.9874,1.9894,1.9884,1.9987,2.002,2.0096,2.0113,2.0136,2.015,2.0133,2.0208,2.0215,2.0221,2.0244,2.0253,2.0147,2.0147,2.0147,2.0146,0,1.9635,1.9686,1.9722,1.9781,1.9816,1.9867,1.9896,1.9929,1.9938,1.9961,2.0026,2.0066,2.012,2.014,2.015,2.0217,2.0209,2.0203,2.0183,2.0231,2.0252,2.0261,2.0148,2.0148,2.0148,2.0147,0,0,1.9699,1.9769,1.9782,1.9808,1.9863,1.9902,1.9954,2.0007,2.0033,2.0076,2.0119,2.0189,2.0183,2.0215,2.0229,2.0261,2.0313,2.0251,2.0253,2.026,2.0387,2.039,2.04,2.0315,2.0317,2.0318,2.0382,0,1.9763,1.9855,1.9876,1.9954,2.0,2.0009,2.0054,2.0092,2.0115,2.0157,2.0182,2.023,2.022,2.0239,2.0272,2.03,2.0338,2.0296,2.0354,2.0356,2.034,2.0411,2.0415,2.0473,2.0391,2.0393,2.0394,0,1.9849,1.9893,1.9977,2.0024,2.0044,2.0084,2.0134,2.0174,2.0217,2.0232,2.0266,2.0277,2.033,2.0308,2.0381,2.0352,2.0377,2.0394,2.0397,2.0402,2.0376,2.0416,2.0493,2.0501,2.0408,2.0407,2.0406,0,1.9884,1.9965,2.0025,2.0047,2.0105,2.0133,2.0158,2.02,2.023,2.0273,2.0292,2.0342,2.0368,2.0406,2.0429,2.0411,2.05,2.048,2.0512,2.0511,2.0528,2.0527,2.0608,2.0548,2.0548,2.0548,2.0547,0,1.9953,2.0003,2.0041,2.0078,2.0134,2.0157,2.0212,2.0238,2.0274,2.0315,2.0327,2.0365,2.0394,2.0436,2.0455,2.0511,2.0524,2.0536,2.054,2.0534,2.0532,2.0549,2.0545,2.055,2.055,2.0549,2.0549,0,2.0001,2.0029,2.0094,2.0143,2.0157,2.0196,2.0238,2.0273,2.0296,2.0348,2.0362,2.0398,2.0448,2.0475,2.0538,2.055,2.0613,2.0616,2.0598,2.0599,2.0628,2.0624,2.0722,2.0736,2.0668,2.0669,2.0669,0,2.0041,2.008,2.0133,2.0161,2.0187,2.0233,2.0263,2.0288,2.0319,2.0371,2.04,2.0451,2.0492,2.0572,2.0603,2.0651,2.0654,2.0685,2.0661,2.0653,2.0652,2.0649,2.0652,2.0688,2.0689,2.069,2.069,0,2.0109,2.0121,2.0165,2.0214,2.025,2.0289,2.0328,2.0351,2.0382,2.0416,2.0467,2.0499,2.0563,2.0613,2.0663,2.0689,2.0694,2.0698,2.0707,2.07,2.0687,2.0693,2.0607,2.0695,2.0694,2.0694,2.0694,2.0693,2.0154,2.0188,2.023,2.0278,2.031,2.0346,2.0381,2.0409,2.0452,2.0506,2.0518,2.0571,2.0613,2.0681,2.0708,2.0749,2.0743,2.0757,2.0761,2.0763,2.0763,2.0682,2.0759,2.0759,2.0759,2.0759,2.0759,0,2.022,2.0248,2.0292,2.0346,2.0384,2.0387,2.043,2.0461,2.0507,2.0546,2.0586,2.0644,2.0693,2.0728,2.0777,2.0803,2.0807,2.0815,2.0812,2.0818,2.0767,2.0753,2.0811,2.0811,2.0811,2.0811,2.0811,2.0811,2.0259,2.0317,2.0334,2.0407,2.0434,2.0487,2.0511,2.0544,2.0574,2.0638,2.0678,2.0701,2.0738,2.0789,2.0833,2.0842,2.0859,2.0867,2.0876,2.0827,2.0822,2.0816,2.0803,2.0871,2.0871,2.0923,2.0923,2.0924]},{"header":{"parameterUnit":"m.s-1","parameterCategory":1,"la1":30.2991,"la2":30.254,"lo1":-89.0895,"lo2":-89.0444,"dy":0.0017,"dx":0.0017,"nx":28,"ny":28,"refTime":"2024-08-10T15:00:00:Z","depth":0,"parameterNumber":3,"parameterNumberName":"V-component_of_WINDS"},"data":[0,0,0,0,0,0,0,0,0,0,0,0,0,0,0,0,0,0,0,0,0,0,0,0,0,0,0,0,0,0,0,0,0,0,0,0,0,0,0,0,0,0,0,0,0,0,0,0,0,0,0,0,0,0,0,0,0,0,4.2972,4.2971,0,4.2926,4.2926,4.2925,4.2842,4.2841,4.2839,4.2838,4.2791,4.2791,4.2791,0,0,0,0,0,0,0,0,0,0,0,0,0,4.2986,4.2986,4.2972,4.2971,4.2971,4.2926,4.2926,4.2925,4.2843,4.2841,4.2839,4.2837,4.2791,4.2791,4.2791,0,0,0,0,0,0,0,0,0,0,0,0,0,4.2964,4.2986,4.2972,4.2924,4.2919,4.2927,4.2926,4.2925,4.2843,4.2841,4.2838,4.2836,4.279,4.2791,4.2791,4.2841,0,0,4.2792,4.2792,0,0,0,0,0,0,0,0,4.2965,4.2964,4.2932,4.2927,4.2922,4.2888,4.2913,4.2897,4.2844,4.2872,4.2838,4.2835,4.2825,4.2822,4.2819,4.2839,4.2837,4.2792,4.2792,4.2793,4.2793,0,0,0,0,0,0,0,4.2967,4.2965,4.2954,4.2931,4.2926,4.2904,4.2899,4.291,4.2862,4.2869,4.2863,4.2859,4.2822,4.2819,4.2817,4.2836,4.2792,4.2793,4.2793,4.2793,4.2892,4.2894,0,0,0,0,0,0,4.2976,4.2967,4.2955,4.2952,4.2938,4.2906,4.29,4.2901,4.2862,4.2854,4.2861,4.2855,4.2819,4.2817,4.2815,4.2868,4.2793,4.2793,4.2793,4.2889,4.2892,4.2895,0,0,0,0,0,0,4.2976,4.2975,4.2957,4.2958,4.2954,4.2909,4.2911,4.2901,4.2898,4.2856,4.2847,4.2867,4.2817,4.2815,4.2835,4.2866,4.2793,4.2793,4.2887,4.289,4.2894,4.2977,0,0,0,0,0,0,4.2977,4.2976,4.2995,4.2959,4.2954,4.2978,4.2913,4.2902,4.2899,4.2891,4.2859,4.2851,4.2815,4.2835,4.2835,4.2865,4.2794,4.2884,4.2888,4.2893,4.2972,4.2983,4.2994,0,0,0,0,0,4.2978,4.3021,4.2996,4.2996,4.2977,4.298,4.2977,4.2935,4.2902,4.292,4.2892,4.2852,4.2863,4.2837,4.2837,4.2868,4.2881,4.2887,4.2892,4.2967,4.2981,4.2993,0,0,0,0,0,0,4.3062,4.3015,4.2988,4.3021,4.3005,4.2966,4.2988,4.2952,4.2946,4.2938,4.2887,4.288,4.2906,4.2889,4.2861,4.2912,4.2866,4.2871,4.2922,4.2936,4.2946,4.2949,4.2794,0,0,0,0,0,4.3085,4.3091,4.305,4.3083,4.3077,4.3034,4.3034,4.3002,4.2984,4.2977,4.2951,4.2934,4.2933,4.2934,4.2931,4.2969,4.296,4.299,4.3001,4.3011,4.3015,4.3031,4.3044,4.2913,4.2913,4.2913,0,0,4.3131,4.3106,4.3114,4.3099,4.3083,4.309,4.3029,4.3039,4.3043,4.2978,4.2995,4.2975,4.2953,4.2982,4.2993,4.2968,4.3049,4.3017,4.3025,4.3025,4.3038,4.3051,4.3062,4.2917,4.2916,4.2915,0,0,4.3218,4.3202,4.3225,4.3211,4.3187,4.3158,4.3165,4.3131,4.3115,4.3131,4.3081,4.3086,4.3086,4.3071,4.3064,4.3145,4.3107,4.3146,4.3202,4.3219,4.3229,4.3238,4.3264,4.3274,4.3151,4.3151,4.3152,0,4.3278,4.3287,4.3243,4.3255,4.325,4.3191,4.3214,4.3202,4.318,4.3176,4.315,4.3147,4.3129,4.3151,4.3171,4.3168,4.3172,4.3148,4.3231,4.324,4.3247,4.3271,4.3282,4.3156,4.3156,4.3155,4.3155,0,4.3361,4.3368,4.3391,4.3369,4.3366,4.3385,4.3342,4.3344,4.3313,4.3287,4.3303,4.3278,4.3268,4.3272,4.3242,4.329,4.3275,4.3241,4.3192,4.3265,4.3287,4.3296,4.3163,4.3161,4.316,4.3159,0,0,4.3499,4.3452,4.3461,4.3449,4.3419,4.3423,4.3438,4.3428,4.343,4.3417,4.3426,4.3428,4.3395,4.3387,4.3355,4.337,4.3432,4.3333,4.3332,4.335,4.348,4.3505,4.3516,4.3408,4.3409,4.3411,4.3481,0,4.3577,4.36,4.356,4.3592,4.3597,4.3541,4.3554,4.3536,4.3512,4.3512,4.3485,4.3486,4.3444,4.3438,4.3451,4.3422,4.3457,4.3417,4.3414,4.3415,4.3419,4.3528,4.3554,4.3622,4.349,4.3491,4.3492,0,4.3672,4.3662,4.3694,4.366,4.3661,4.3673,4.3659,4.3661,4.3639,4.362,4.3611,4.3573,4.3584,4.3539,4.3553,4.3526,4.3523,4.3509,4.351,4.3506,4.3456,4.3525,4.3643,4.3653,4.3506,4.3505,4.3504,0,4.3766,4.3761,4.3779,4.3771,4.3733,4.3742,4.3727,4.3702,4.3699,4.3687,4.3683,4.3674,4.3668,4.3661,4.3621,4.3592,4.3638,4.359,4.3621,4.3622,4.3632,4.3631,4.3749,4.3634,4.3634,4.3634,4.3634,0,4.3856,4.3877,4.382,4.3831,4.3853,4.3806,4.3829,4.3808,4.3787,4.3791,4.3744,4.3749,4.3697,4.3697,4.3666,4.368,4.3679,4.3663,4.3654,4.3666,4.3667,4.3661,4.3655,4.3636,4.3636,4.3635,4.3635,0,4.3963,4.3926,4.3942,4.3904,4.3895,4.3912,4.3879,4.3887,4.386,4.3867,4.3866,4.3823,4.382,4.378,4.3769,4.3748,4.3773,4.3757,4.378,4.3774,4.3806,4.3803,4.3922,4.3934,4.3814,4.3816,4.3817,0,4.4022,4.4037,4.4001,4.4,4.3987,4.3988,4.3983,4.3938,4.3935,4.3911,4.3921,4.3914,4.3906,4.3903,4.3871,4.3861,4.3842,4.3885,4.384,4.3851,4.384,4.3839,4.3839,4.3893,4.3895,4.3896,4.3897,0,4.4129,4.411,4.4105,4.4094,4.409,4.4079,4.4065,4.4068,4.4018,4.4017,4.4013,4.4007,4.3995,4.3987,4.3972,4.3954,4.3917,4.3912,4.3918,4.3929,4.3941,4.3932,4.3803,4.3909,4.3908,4.3907,4.3906,4.3906,4.4212,4.4222,4.4198,4.4194,4.4178,4.4166,4.4171,4.4145,4.4141,4.4127,4.4101,4.41,4.4077,4.4052,4.4038,4.4036,4.4014,4.4024,4.4026,4.4028,4.4034,4.3943,4.4033,4.4033,4.4033,4.4032,4.4032,0,4.4315,4.4296,4.4293,4.4275,4.4272,4.4238,4.422,4.4219,4.422,4.4201,4.4194,4.4188,4.4181,4.4148,4.4136,4.4141,4.4124,4.414,4.4138,4.4134,4.4055,4.405,4.4154,4.4154,4.4154,4.4154,4.4154,4.4154,4.4367,4.4382,4.4359,4.4365,4.4346,4.4345,4.4338,4.4326,4.4311,4.4307,4.4301,4.4279,4.4254,4.424,4.4232,4.4222,4.4219,4.424,4.4225,4.4151,4.414,4.4128,4.4123,4.4241,4.4241,4.4303,4.4303,4.4304]}]]